When you browse on this site, cookies collect data to enhance your experience and personalize the content and advertising you see.
Visit our Privacy Policy to learn more. By continuing to use the site, you agree to this use of cookies and data.
  • In Belgium
  • List of Countries
  • For 7 days
  • Water Temperature
  • Satellite Maps
  • Weather Map
  • Weather Widgets
  • user-avatar
    Login

    Hourly Weather Trat

    Today, 21 February, Thursday

    Time Temperature Precipitation Wind Pressure Humidity
    00:00 +25°C° 0 mm 0 mps 759 mmHg 91%
    01:00 +24°C° 0 mm 0 mps 759 mmHg 91%
    02:00 +24°C° 0 mm 0 mps 758 mmHg 92%
    03:00 +24°C° 0 mm 0 mps 758 mmHg 93%
    04:00 +24°C° 0 mm 0 mps 758 mmHg 93%
    05:00 +24°C° 0 mm 0 mps 758 mmHg 93%
    06:00 +24°C° 0 mm 0 mps 758 mmHg 93%
    07:00 +24°C° 0 mm 0 mps 759 mmHg 92%
    08:00 +27°C° 0 mm 0 mps 759 mmHg 81%
    09:00 +31°C° 0 mm 1 mps 759 mmHg 69%
    10:00 +34°C° 0 mm 1 mps 760 mmHg 58%
    11:00 +35°C° 0 mm 1 mps 759 mmHg 54%
    12:00 +36°C° 0 mm 1 mps 759 mmHg 49%
    13:00 +38°C° 0 mm 2 mps 758 mmHg 45%
    14:00 +37°C° 0.1 mm 2 mps 757 mmHg 48%
    15:00 +36°C° 0.1 mm 2 mps 757 mmHg 51%
    16:00 +36°C° 0.1 mm 3 mps 756 mmHg 54%
    17:00 +34°C° 0 mm 2 mps 756 mmHg 63%
    18:00 +31°C° 0 mm 2 mps 756 mmHg 72%
    19:00 +29°C° 0 mm 1 mps 756 mmHg 80%
    20:00 +28°C° 0 mm 1 mps 757 mmHg 82%
    21:00 +28°C° 0 mm 1 mps 757 mmHg 84%
    22:00 +26°C° 0 mm 0 mps 757 mmHg 86%
    23:00 +25°C° 0 mm 0 mps 757 mmHg 87%

    Tomorrow, 22 February, Friday

    Time Temperature Precipitation Wind Pressure Humidity
    00:00 +25°C° 0 mm 0 mps 757 mmHg 88%
    01:00 +25°C° 0 mm 0 mps 757 mmHg 88%
    02:00 +25°C° 0 mm 0 mps 756 mmHg 89%
    03:00 +24°C° 0 mm 0 mps 756 mmHg 90%
    04:00 +24°C° 0 mm 0 mps 755 mmHg 91%
    05:00 +24°C° 0 mm 0 mps 756 mmHg 91%
    06:00 +24°C° 0 mm 0 mps 756 mmHg 91%
    07:00 +24°C° 0 mm 0 mps 757 mmHg 91%
    08:00 +29°C° 0 mm 1 mps 757 mmHg 81%
    09:00 +31°C° 0 mm 1 mps 757 mmHg 70%
    10:00 +33°C° 0 mm 1 mps 758 mmHg 60%
    11:00 +35°C° 0.1 mm 2 mps 757 mmHg 59%
    12:00 +35°C° 0.1 mm 2 mps 757 mmHg 57%
    13:00 +36°C° 0.1 mm 2 mps 756 mmHg 55%
    14:00 +35°C° 0.5 mm 2 mps 756 mmHg 58%
    15:00 +35°C° 0.5 mm 2 mps 755 mmHg 61%
    16:00 +34°C° 0.5 mm 2 mps 754 mmHg 64%
    17:00 +32°C° 0.2 mm 2 mps 755 mmHg 70%
    18:00 +30°C° 0.2 mm 2 mps 755 mmHg 77%
    19:00 +29°C° 0.2 mm 1 mps 755 mmHg 83%
    20:00 +28°C° 0 mm 1 mps 756 mmHg 85%
    21:00 +28°C° 0 mm 1 mps 756 mmHg 86%
    22:00 +28°C° 0 mm 1 mps 757 mmHg 87%
    23:00 +28°C° 0 mm 1 mps 757 mmHg 88%

    Day after tomorrow, 23 February, Saturday

    Time Temperature Precipitation Wind Pressure Humidity
    00:00 +27°C° 0 mm 1 mps 756 mmHg 89%
    01:00 +27°C° 0 mm 1 mps 756 mmHg 90%
    02:00 +27°C° 0 mm 1 mps 756 mmHg 91%
    03:00 +27°C° 0 mm 1 mps 755 mmHg 91%
    04:00 +27°C° 0 mm 1 mps 755 mmHg 92%
    05:00 +27°C° 0.1 mm 1 mps 755 mmHg 92%
    06:00 +27°C° 0.1 mm 1 mps 756 mmHg 92%
    07:00 +27°C° 0.1 mm 1 mps 756 mmHg 93%
    08:00 +29°C° 0.3 mm 1 mps 757 mmHg 84%
    09:00 +31°C° 0.3 mm 2 mps 757 mmHg 75%
    10:00 +32°C° 0.3 mm 2 mps 758 mmHg 66%
    11:00 +34°C° 0.4 mm 2 mps 757 mmHg 64%
    12:00 +34°C° 0.4 mm 3 mps 756 mmHg 62%
    13:00 +35°C° 0.4 mm 3 mps 755 mmHg 60%
    14:00 +34°C° 0.8 mm 3 mps 755 mmHg 64%
    15:00 +33°C° 0.8 mm 3 mps 754 mmHg 68%
    16:00 +31°C° 0.8 mm 3 mps 754 mmHg 72%
    17:00 +30°C° 0.2 mm 2 mps 754 mmHg 77%
    18:00 +29°C° 0.2 mm 2 mps 755 mmHg 82%
    19:00 +28°C° 0.2 mm 1 mps 755 mmHg 87%
    20:00 +28°C° 0 mm 1 mps 756 mmHg 88%
    21:00 +27°C° 0 mm 1 mps 756 mmHg 89%
    22:00 +27°C° 0 mm 1 mps 757 mmHg 90%
    23:00 +27°C° 0.1 mm 1 mps 756 mmHg 90%

    24 February, Sunday

    Time Temperature Precipitation Wind Pressure Humidity
    00:00 +27°C° 0.1 mm 1 mps 756 mmHg 90%
    01:00 +27°C° 0.1 mm 1 mps 756 mmHg 91%
    02:00 +26°C° 0 mm 1 mps 755 mmHg 91%
    03:00 +26°C° 0 mm 1 mps 755 mmHg 91%
    04:00 +26°C° 0 mm 1 mps 755 mmHg 91%
    05:00 +26°C° 0 mm 1 mps 755 mmHg 90%
    06:00 +26°C° 0 mm 1 mps 756 mmHg 89%
    07:00 +27°C° 0 mm 1 mps 756 mmHg 88%
    08:00 +29°C° 0 mm 1 mps 757 mmHg 79%
    09:00 +31°C° 0 mm 2 mps 757 mmHg 70%
    10:00 +34°C° 0 mm 2 mps 758 mmHg 61%
    11:00 +34°C° 0.1 mm 2 mps 757 mmHg 59%
    12:00 +35°C° 0.1 mm 2 mps 756 mmHg 57%
    13:00 +36°C° 0.1 mm 3 mps 755 mmHg 56%
    14:00 +35°C° 0.4 mm 3 mps 754 mmHg 59%
    15:00 +34°C° 0.4 mm 3 mps 754 mmHg 62%
    16:00 +34°C° 0.4 mm 3 mps 753 mmHg 66%
    17:00 +31°C° 0.1 mm 2 mps 753 mmHg 73%
    18:00 +30°C° 0.1 mm 2 mps 754 mmHg 80%
    19:00 +28°C° 0.1 mm 1 mps 754 mmHg 87%
    20:00 +28°C° 0.4 mm 1 mps 755 mmHg 89%
    21:00 +28°C° 0.4 mm 1 mps 755 mmHg 90%
    22:00 +27°C° 0.4 mm 1 mps 756 mmHg 92%
    23:00 +27°C° 0.3 mm 1 mps 756 mmHg 93%

    25 February, Monday

    Time Temperature Precipitation Wind Pressure Humidity
    00:00 +27°C° 0.3 mm 1 mps 756 mmHg 93%
    01:00 +27°C° 0.3 mm 1 mps 755 mmHg 93%
    02:00 +27°C° 0 mm 1 mps 755 mmHg 94%
    03:00 +27°C° 0 mm 1 mps 755 mmHg 94%
    04:00 +26°C° 0 mm 1 mps 755 mmHg 94%
    05:00 +27°C° 0 mm 1 mps 755 mmHg 94%
    06:00 +27°C° 0 mm 1 mps 756 mmHg 93%
    07:00 +27°C° 0 mm 1 mps 756 mmHg 92%
    08:00 +29°C° 0 mm 1 mps 757 mmHg 83%
    09:00 +31°C° 0 mm 2 mps 757 mmHg 74%
    10:00 +32°C° 0 mm 2 mps 758 mmHg 64%
    11:00 +34°C° 0.2 mm 2 mps 757 mmHg 62%
    12:00 +34°C° 0.2 mm 2 mps 756 mmHg 60%
    13:00 +35°C° 0.2 mm 3 mps 755 mmHg 59%
    14:00 +34°C° 0.6 mm 3 mps 755 mmHg 61%
    15:00 +34°C° 0.6 mm 3 mps 754 mmHg 64%
    16:00 +33°C° 0.6 mm 3 mps 754 mmHg 67%
    17:00 +31°C° 0.1 mm 2 mps 754 mmHg 72%
    18:00 +30°C° 0.1 mm 2 mps 755 mmHg 77%
    19:00 +28°C° 0.1 mm 1 mps 755 mmHg 82%
    20:00 +28°C° 0 mm 1 mps 756 mmHg 84%
    21:00 +28°C° 0 mm 1 mps 756 mmHg 87%
    22:00 +27°C° 0 mm 1 mps 756 mmHg 89%
    23:00 +27°C° 0.7 mm 1 mps 756 mmHg 90%

    26 February, Tuesday

    Time Temperature Precipitation Wind Pressure Humidity
    00:00 +27°C° 0.7 mm 1 mps 756 mmHg 92%
    01:00 +26°C° 0.7 mm 1 mps 755 mmHg 93%
    02:00 +26°C° 0 mm 1 mps 755 mmHg 93%
    03:00 +26°C° 0 mm 1 mps 755 mmHg 93%
    04:00 +26°C° 0 mm 1 mps 755 mmHg 93%
    05:00 +26°C° 0 mm 1 mps 755 mmHg 92%
    06:00 +26°C° 0 mm 1 mps 756 mmHg 91%
    07:00 +26°C° 0 mm 1 mps 757 mmHg 90%
    08:00 +29°C° 0 mm 1 mps 757 mmHg 79%
    09:00 +31°C° 0 mm 1 mps 758 mmHg 68%
    10:00 +33°C° 0 mm 1 mps 758 mmHg 57%
    11:00 +34°C° 0.1 mm 1 mps 757 mmHg 56%
    12:00 +35°C° 0.1 mm 2 mps 757 mmHg 55%
    13:00 +36°C° 0.1 mm 2 mps 756 mmHg 53%
    14:00 +35°C° 0.6 mm 2 mps 755 mmHg 58%
    15:00 +34°C° 0.6 mm 3 mps 755 mmHg 63%
    16:00 +33°C° 0.6 mm 3 mps 755 mmHg 68%
    17:00 +31°C° 0.4 mm 2 mps 755 mmHg 75%
    18:00 +29°C° 0.4 mm 2 mps 755 mmHg 82%
    19:00 +28°C° 0.4 mm 1 mps 756 mmHg 89%
    20:00 +27°C° 0 mm 1 mps 756 mmHg 90%
    21:00 +27°C° 0 mm 1 mps 756 mmHg 90%
    22:00 +27°C° 0 mm 1 mps 757 mmHg 90%
    23:00 +24°C° 0 mm 0 mps 756 mmHg 91%
    Show more